FW6856 Weather Reports


time (UTC)temp
C
wind
direction
speed
KPH
gust
KPH
rain 1hr
cm
rain 24hr
cm
rain mn
cm
humidity
%
barometer
mb
20260504024546 7 285 4.8 12.9 0.00 0.00 0.00 47 1019.2
20260504023044 8 360 4.8 16.1 0.00 0.00 0.00 46 1019.1
20260504021549 8 360 3.2 14.5 0.00 0.00 0.00 47 1018.9
20260504020053 8 286 4.8 16.1 0.00 0.00 0.00 46 1018.8
20260504014551 8 360 3.2 12.9 0.00 0.00 0.00 48 1018.9
20260504013103 8 259 3.2 16.1 0.00 0.00 0.00 49 1018.8
20260504011543 8 360 4.8 12.9 0.00 0.00 0.00 51 1018.6
20260504010049 9 360 1.6 17.7 0.00 0.00 0.00 50 1018.6
20260504004559 9 360 4.8 14.5 0.00 0.00 0.00 48 1018.4
20260504003047 10 360 1.6 9.7 0.00 0.00 0.00 43 1018.4
20260504001544 11 360 1.6 12.9 0.00 0.00 0.00 41 1018.4
20260504000044 12 251 3.2 9.7 0.00 0.00 0.00 39 1018.4
20260503234549 12 360 1.6 9.7 0.00 0.00 0.00 40 1018.4
20260503233047 13 360 3.2 12.9 0.00 0.00 0.00 38 1018.3
20260503231548 13 360 3.2 11.3 0.00 0.00 0.00 38 1018.4
20260503230051 14 360 3.2 8.0 0.00 0.00 0.00 37 1018.4
20260503224542 15 360 3.2 12.9 0.00 0.00 0.00 37 1018.3
20260503223048 15 259 4.8 12.9 0.00 0.00 0.00 38 1018.5
20260503221545 15 360 4.8 12.9 0.00 0.00 0.00 38 1018.5
20260503220045 15 279 3.2 14.5 0.00 0.00 0.00 43 1018.5
20260503214543 15 360 4.8 14.5 0.00 0.00 0.00 42 1018.6
20260503213048 16 236 3.2 12.9 0.00 0.00 0.00 39 1018.6
20260503211545 16 287 3.2 14.5 0.00 0.00 0.00 37 1018.7
20260503210044 16 296 1.6 8.0 0.00 0.00 0.00 37 1018.6
20260503204545 15 360 4.8 17.7 0.00 0.00 0.00 33 1018.8
20260503203053 15 360 4.8 14.5 0.00 0.00 0.00 32 1019.0
20260503201546 15 360 4.8 12.9 0.00 0.00 0.00 32 1019.1
20260503200045 15 205 4.8 17.7 0.00 0.00 0.00 32 1019.4
20260503194544 15 360 6.4 16.1 0.00 0.00 0.00 36 1019.4
20260503193046 15 229 4.8 9.7 0.00 0.00 0.00 40 1019.8
20260503191549 15 216 3.2 9.7 0.00 0.00 0.00 41 1019.9
20260503190048 15 360 4.8 14.5 0.00 0.00 0.00 42 1020.1
20260503184558 13 184 4.8 20.9 0.00 0.00 0.00 44 1020.0
20260503183052 13 360 3.2 11.3 0.00 0.00 0.00 49 1020.1
20260503181554 14 247 4.8 16.1 0.00 0.00 0.00 49 1020.2
20260503180100 13 238 1.6 8.0 0.00 0.00 0.00 50 1020.2
20260503174546 13 288 3.2 12.9 0.00 0.00 0.00 48 1020.2
20260503173050 12 233 4.8 9.7 0.00 0.00 0.00 48 1020.3
20260503171539 12 226 1.6 9.7 0.00 0.00 0.00 47 1020.5
20260503081543 1 360 3.2 14.5 0.00 0.00 0.00 79 1017.0
20260503071557 2 284 3.2 16.1 0.00 0.00 0.00 77 1016.7
20260503060110 2 360 1.6 12.9 0.00 0.00 0.00 74 1016.7
20260503054557 2 296 3.2 16.1 0.00 0.00 0.00 74 1017.0
20260503053044 2 292 4.8 14.5 0.00 0.00 0.00 74 1016.9
20260503051544 2 292 4.8 12.9 0.00 0.00 0.00 74 1017.1
20260503050049 3 288 4.8 14.5 0.00 0.00 0.00 73 1017.2
20260503044542 3 360 4.8 12.9 0.00 0.00 0.00 72 1017.0
20260503043049 3 360 3.2 16.1 0.00 0.00 0.00 71 1016.9
20260503041545 3 360 3.2 14.5 0.00 0.00 0.00 70 1016.7
20260503040056 3 278 4.8 14.5 0.00 0.00 0.00 70 1016.7
20260503034549 3 360 4.8 19.3 0.00 0.00 0.00 69 1016.5
20260503033046 3 360 4.8 20.9 0.00 0.00 0.00 68 1016.5
20260503031549 3 360 6.4 16.1 0.00 0.00 0.00 67 1016.5
20260503030058 3 360 4.8 19.3 0.00 0.00 0.00 67 1016.2